Index of /20260411/WXO-DD/model_gdps/15km/12/037
Name Last modified Size Description
Parent Directory -
20260411T12Z_MSC_GDPS_AirTemp_AGL-120m_LatLon0.15_PT037H.grib2 2026-04-11 16:08 906K
20260411T12Z_MSC_GDPS_AirTemp_AGL-2m_LatLon0.15_PT037H.grib2 2026-04-11 16:09 1.2M
20260411T12Z_MSC_GDPS_AirTemp_AGL-40m_LatLon0.15_PT037H.grib2 2026-04-11 16:09 929K
20260411T12Z_MSC_GDPS_AirTemp_AGL-80m_LatLon0.15_PT037H.grib2 2026-04-11 16:09 917K
20260411T12Z_MSC_GDPS_Albedo_Sfc_LatLon0.15_PT037H.grib2 2026-04-11 16:09 248K
20260411T12Z_MSC_GDPS_ConvectivePrecip-Accum_Sfc_LatLon0.15_PT037H.grib2 2026-04-11 16:09 2.4M
20260411T12Z_MSC_GDPS_DewPointDepression_AGL-2m_LatLon0.15_PT037H.grib2 2026-04-11 16:09 743K
20260411T12Z_MSC_GDPS_DewPoint_AGL-2m_LatLon0.15_PT037H.grib2 2026-04-11 16:09 604K
20260411T12Z_MSC_GDPS_DownwardLongwaveRadiationFlux-Accum_Sfc_LatLon0.15_PT037H.grib2 2026-04-11 16:09 797K
20260411T12Z_MSC_GDPS_DownwardShortwaveRadiationFlux-Accum_Sfc_LatLon0.15_PT037H.grib2 2026-04-11 16:09 964K
20260411T12Z_MSC_GDPS_FreezingRain-Accum1h_Sfc_LatLon0.15_PT037H.grib2 2026-04-11 16:09 30K
20260411T12Z_MSC_GDPS_FreezingRain-Accum_Sfc_LatLon0.15_PT037H.grib2 2026-04-11 16:09 165K
20260411T12Z_MSC_GDPS_IcePellets-Accum1h_Sfc_LatLon0.15_PT037H.grib2 2026-04-11 16:09 7.7K
20260411T12Z_MSC_GDPS_IcePellets-Accum_Sfc_LatLon0.15_PT037H.grib2 2026-04-11 16:09 53K
20260411T12Z_MSC_GDPS_LatentHeatNetFlux_Sfc_LatLon0.15_PT037H.grib2 2026-04-11 16:09 639K
20260411T12Z_MSC_GDPS_NetLongwaveRadiationFlux-Accum_Sfc_LatLon0.15_PT037H.grib2 2026-04-11 16:09 1.0M
20260411T12Z_MSC_GDPS_NetShortwaveRadiationFlux-Accum_Sfc_LatLon0.15_PT037H.grib2 2026-04-11 16:09 943K
20260411T12Z_MSC_GDPS_O3MixingRatio_LatLon0.15_PT037H.grib2 2026-04-11 17:05 2.0M
20260411T12Z_MSC_GDPS_O3_EAtm_LatLon0.15_PT037H.grib2 2026-04-11 17:05 2.1M
20260411T12Z_MSC_GDPS_PlanetaryBoundaryLayerHeight_Sfc_LatLon0.15_PT037H.grib2 2026-04-11 16:09 2.4M
20260411T12Z_MSC_GDPS_Precip-Accum1h_Sfc_LatLon0.15_PT037H.grib2 2026-04-11 16:09 3.2M
20260411T12Z_MSC_GDPS_Precip-Accum_Sfc_LatLon0.15_PT037H.grib2 2026-04-11 16:09 4.3M
20260411T12Z_MSC_GDPS_PrecipRate_Sfc_LatLon0.15_PT037H.grib2 2026-04-11 16:09 3.0M
20260411T12Z_MSC_GDPS_Pressure_MSL_LatLon0.15_PT037H.grib2 2026-04-11 16:09 814K
20260411T12Z_MSC_GDPS_Pressure_Sfc_LatLon0.15_PT037H.grib2 2026-04-11 16:09 1.1M
20260411T12Z_MSC_GDPS_RadiativeTemp_Sfc_LatLon0.15_PT037H.grib2 2026-04-11 16:09 655K
20260411T12Z_MSC_GDPS_Rain-Accum1h_Sfc_LatLon0.15_PT037H.grib2 2026-04-11 16:09 1.6M
20260411T12Z_MSC_GDPS_Rain-Accum_Sfc_LatLon0.15_PT037H.grib2 2026-04-11 16:09 3.1M
20260411T12Z_MSC_GDPS_RelativeHumidity_AGL-2m_LatLon0.15_PT037H.grib2 2026-04-11 16:09 1.1M
20260411T12Z_MSC_GDPS_Runoff-Accum_Sfc_LatLon0.15_PT037H.grib2 2026-04-11 16:09 120K
20260411T12Z_MSC_GDPS_SensibleHeatNetFlux_Sfc_LatLon0.15_PT037H.grib2 2026-04-11 16:09 440K
20260411T12Z_MSC_GDPS_Snow-Accum1h_Sfc_LatLon0.15_PT037H.grib2 2026-04-11 16:09 1.0M
20260411T12Z_MSC_GDPS_Snow-Accum_Sfc_LatLon0.15_PT037H.grib2 2026-04-11 16:09 1.9M
20260411T12Z_MSC_GDPS_SnowDepth_Sfc_LatLon0.15_PT037H.grib2 2026-04-11 16:09 1.8M
20260411T12Z_MSC_GDPS_SoilTemp_DBS-0to10cm_LatLon0.15_PT037H.grib2 2026-04-11 16:09 501K
20260411T12Z_MSC_GDPS_SoilTemp_Sfc_LatLon0.15_PT037H.grib2 2026-04-11 16:09 575K
20260411T12Z_MSC_GDPS_SoilVolumetricWaterContent_DBS-0to10cm_LatLon0.15_PT037H.grib2 2026-04-11 16:09 550K
20260411T12Z_MSC_GDPS_SoilVolumetricWaterContent_DBS-0to1cm_LatLon0.15_PT037H.grib2 2026-04-11 16:09 652K
20260411T12Z_MSC_GDPS_SpecificHumidity_AGL-120m_LatLon0.15_PT037H.grib2 2026-04-11 16:09 1.1M
20260411T12Z_MSC_GDPS_SpecificHumidity_AGL-2m_LatLon0.15_PT037H.grib2 2026-04-11 16:09 1.2M
20260411T12Z_MSC_GDPS_SpecificHumidity_AGL-40m_LatLon0.15_PT037H.grib2 2026-04-11 16:09 1.1M
20260411T12Z_MSC_GDPS_SpecificHumidity_AGL-80m_LatLon0.15_PT037H.grib2 2026-04-11 16:09 1.1M
20260411T12Z_MSC_GDPS_SpecificHumidity_Sfc_LatLon0.15_PT037H.grib2 2026-04-11 16:09 615K
20260411T12Z_MSC_GDPS_TotalCloudCover_Sfc_LatLon0.15_PT037H.grib2 2026-04-11 16:09 818K
20260411T12Z_MSC_GDPS_UVIndex-ClearSky_Sfc_LatLon0.15_PT037H.grib2 2026-04-11 17:05 1.0M
20260411T12Z_MSC_GDPS_UVIndex_Sfc_LatLon0.15_PT037H.grib2 2026-04-11 17:05 1.4M
20260411T12Z_MSC_GDPS_UpwardLongwaveRadiationFlux_NTAtm_LatLon0.15_PT037H.grib2 2026-04-11 16:09 1.0M
20260411T12Z_MSC_GDPS_WindDir_AGL-10m_LatLon0.15_PT037H.grib2 2026-04-11 16:09 1.3M
20260411T12Z_MSC_GDPS_WindDir_AGL-120m_LatLon0.15_PT037H.grib2 2026-04-11 16:09 1.3M
20260411T12Z_MSC_GDPS_WindDir_AGL-40m_LatLon0.15_PT037H.grib2 2026-04-11 16:09 1.4M
20260411T12Z_MSC_GDPS_WindDir_AGL-80m_LatLon0.15_PT037H.grib2 2026-04-11 16:09 1.4M
20260411T12Z_MSC_GDPS_WindDir_IsbL-0700_LatLon0.15_PT037H.grib2 2026-04-11 16:09 1.6M
20260411T12Z_MSC_GDPS_WindGust-Max_AGL-10m_LatLon0.15_PT037H.grib2 2026-04-11 16:09 2.2M
20260411T12Z_MSC_GDPS_WindGust-Min_AGL-10m_LatLon0.15_PT037H.grib2 2026-04-11 16:09 2.1M
20260411T12Z_MSC_GDPS_WindGust_AGL-10m_LatLon0.15_PT037H.grib2 2026-04-11 16:09 2.1M
20260411T12Z_MSC_GDPS_WindSpeed_AGL-10m_LatLon0.15_PT037H.grib2 2026-04-11 16:09 1.1M
20260411T12Z_MSC_GDPS_WindSpeed_AGL-120m_LatLon0.15_PT037H.grib2 2026-04-11 16:09 1.2M
20260411T12Z_MSC_GDPS_WindSpeed_AGL-40m_LatLon0.15_PT037H.grib2 2026-04-11 16:09 1.2M
20260411T12Z_MSC_GDPS_WindSpeed_AGL-80m_LatLon0.15_PT037H.grib2 2026-04-11 16:09 1.2M
20260411T12Z_MSC_GDPS_WindSpeed_IsbL-0700_LatLon0.15_PT037H.grib2 2026-04-11 16:09 1.5M
20260411T12Z_MSC_GDPS_WindU_AGL-10m_LatLon0.15_PT037H.grib2 2026-04-11 16:09 1.3M
20260411T12Z_MSC_GDPS_WindU_AGL-120m_LatLon0.15_PT037H.grib2 2026-04-11 16:09 973K
20260411T12Z_MSC_GDPS_WindU_AGL-40m_LatLon0.15_PT037H.grib2 2026-04-11 16:09 965K
20260411T12Z_MSC_GDPS_WindU_AGL-80m_LatLon0.15_PT037H.grib2 2026-04-11 16:09 972K
20260411T12Z_MSC_GDPS_WindU_IsbL-0700_LatLon0.15_PT037H.grib2 2026-04-11 16:09 1.2M
20260411T12Z_MSC_GDPS_WindV_AGL-10m_LatLon0.15_PT037H.grib2 2026-04-11 16:09 1.3M
20260411T12Z_MSC_GDPS_WindV_AGL-120m_LatLon0.15_PT037H.grib2 2026-04-11 16:09 1.0M
20260411T12Z_MSC_GDPS_WindV_AGL-40m_LatLon0.15_PT037H.grib2 2026-04-11 16:09 964K
20260411T12Z_MSC_GDPS_WindV_AGL-80m_LatLon0.15_PT037H.grib2 2026-04-11 16:09 1.0M
20260411T12Z_MSC_GDPS_WindV_IsbL-0700_LatLon0.15_PT037H.grib2 2026-04-11 16:09 1.2M